Regional Weather Roundup
Issued by NWS

Home | Current Version | Previous Version | Text Only | Print | Product List | Glossary Off
Versions: 1 2 3 4 5 6 7 8 9 10 11 12 13 14 15 16 17 18 19 20 21 22 23 24 25 26 27 28 29 30 31 32 33 34 35 36 37 38 39 40 41 42 43 44 45 46 47 48 49 50

194
ASUS43 KLOT 200409
RWRIL

ILLINOIS REGIONAL WEATHER ROUNDUP
NATIONAL WEATHER SERVICE CHICAGO/ROMEOVILLE IL
1000 PM CST MON FEB 19 2018

NOTE: "FAIR" INDICATES FEW OR NO CLOUDS BELOW 12,000 FEET WITH NO
SIGNIFICANT WEATHER AND/OR OBSTRUCTIONS TO VISIBILITY.

* THESE STATIONS ARE NOT UNDER NWS QUALITY CONTROL. THEY ALSO MAY NOT
  REPORT WEATHER SUCH AS PRECIPITATION OR FOG.

ILZ001-002-007-009-015-016-024-200500-
NORTHWEST ILLINOIS

CITY           SKY/WX    TMP DP  RH WIND       PRES   REMARKS
MOLINE         LGT RAIN  46  45  96 W12       29.78R
STERLING*      LGT RAIN  55  55 100 MISG        N/A
SAVANNA*       FOG       47  46  99 CALM      29.77S VSB 3/4
$$

ILZ003-004-008-010-011-017-018-200500-
NORTH CENTRAL ILLINOIS

CITY           SKY/WX    TMP DP  RH WIND       PRES   REMARKS
ROCKFORD       LGT RAIN  48  48 100 S14       29.78F VSB 1/8
FREEPORT*      FOG       47  47 100 SW8       29.78S VSB 3/4
ROCHELLE*      RAIN      49  49 100 S15       29.77F VSB 1/4
DE KALB*       RAIN      47  47  99 S12       29.81R VSB 1/4
PERU*          RAIN      57  55  94 S18G24    29.80S
$$

ILZ005-006-012>014-019>023-200500-
NORTHEAST ILLINOIS

CITY           SKY/WX    TMP DP  RH WIND       PRES   REMARKS
CHICAGO-OHARE  LGT RAIN  59  56  89 S20G26    29.80S
CHICAGO-MIDWAY LGT RAIN  59  58  96 S17       29.82S FOG
AURORA         LGT RAIN  53  53 100 S15       29.81R FOG
LANSING*       TSTM      57  57 100 S16G22    29.87S
JOLIET*        CLOUDY    60  59  97 S14       29.84S
WAUKEGAN       LGT RAIN  56  56 100 SW15      29.78F FOG
DUPAGE AIRPORT CLOUDY    55  55 100 S13       29.81R FOG
KANKAKEE*      CLOUDY    59  58  97 S16G23    29.85S
WHEELING       LGT RAIN  59  57  93 S15       29.82R
MORRIS*        LGT RAIN  57  56  95 S17       29.82R
ROMEOVILLE*    CLOUDY    57  56  97 S21       29.83S
NORTHERLY ISL    N/A     58  55  90 S15         N/A
$$

LMZ740>746-200500-
SOUTHERN LAKE MICHIGAN

STATION/POSITION SKY/WX   TEMP    WIND        PRES    VSBY  WAVE
                          AIR SEA DIR/SP/G                  HT/PER
                          (F)     (DEG/KT/KT) (MB)    (MI)  (FT/S)
HARRISON CRIB              57     200/ 32/ 35   N/A
BURNHAM HARBOR             58     180/ 17/ 24   N/A
CALUMET HARBOR             57     200/ 13/ 20 1010.7R
BURNS HARBOR               58     200/ 20/ 26 1011.9R
MICHIGAN CITY              58     170/ 17/ 21   N/A
$$

ILZ025>027-034>036-040-047-049-050-058-095>099-200500-
WEST-CENTRAL ILLINOIS

CITY           SKY/WX    TMP DP  RH WIND       PRES   REMARKS
QUINCY         LGT RAIN  61  59  93 SW15      29.78S
GALESBURG*     RAIN      59  59 100 S12       29.79R
MACOMB*        HVY RAIN  57  56  97 SE3       29.80S
JACKSONVILLE*  HVY RAIN  61  58  90 S21G30    29.84R
PITTSFIELD*    RAIN      62  60  93 S17G25    29.83S
$$

ILZ028>032-037-038-041>044-048-051>054-059>061-200500-
CENTRAL ILLINOIS

CITY           SKY/WX    TMP DP  RH WIND       PRES   REMARKS
PONTIAC        CLOUDY    60  60  98 SW9       29.84S
BLOOMINGTON    LGT RAIN  62  58  86 S31G41    29.81S
DECATUR        LGT RAIN  64  60  87 S22G32    29.87R
PEORIA         LGT RAIN  60  57  89 S10       29.79F
LACON*         TSTM      58  58 100 W6        29.81R
LINCOLN*       RAIN      63  60  91 S17G28    29.84R
SPRINGFIELD    LGT RAIN  64  60  87 S17G30    29.86R
TAYLORVILLE    DRIZZLE   63  60  91 S23G32    29.88R
$$

ILZ033-039-045-046-055>057-062-063-200500-
EAST-CENTRAL ILLINOIS

CITY           SKY/WX    TMP DP  RH WIND       PRES   REMARKS
CHAMPAIGN      CLOUDY    61  57  87 S24G33    29.88S
DANVILLE*      CLOUDY    62  56  82 S24G30    29.88S
RANTOUL*       CLOUDY    63  60  89 S22G28    29.87S
MATTOON        CLOUDY    63  56  78 S16G23    29.92R
PARIS*         MOCLDY    62  57  83 S18G26    29.95R
$$

ILZ079-100>102-200500-
SOUTHWEST ILLINOIS

CITY           SKY/WX    TMP DP  RH WIND       PRES   REMARKS
ALTON          CLOUDY    64  61  88 S15G22    29.89R
BELLEVILLE     MOCLDY    66  61  82 SW17G25   29.90R
CAHOKIA*       FAIR      68  59  73 S14G28    29.89R
SPARTA*        FAIR      67  62  84 S13G22    29.96S
$$

ILZ064>066-069>071-074>076-080>082-084>086-088>090-092>094-200500-
SOUTH-CENTRAL ILLINOIS

CITY           SKY/WX    TMP DP  RH WIND       PRES   REMARKS
CARBONDALE     FAIR      67  57  70 S17G30    29.96R
CAIRO*         FAIR      64  58  79 S12       30.01S
EFFINGHAM*     CLOUDY    65  59  80 S12G20    29.97R
MARION         FAIR      66  56  71 S18G26    29.99S
MT. VERNON     FAIR      64  57  78 S10       29.99R
CENTRALIA*     CLOUDY    68  60  75 S15G21    29.95S
SALEM*         CLOUDY    69  59  70 S16       29.96R
METROPOLIS*    FAIR      67  59  76 S8        30.03S
$$

ILZ067-068-072-073-078-083-087-091-200500-
SOUTHEAST ILLINOIS

CITY           SKY/WX    TMP DP  RH WIND       PRES   REMARKS
LAWRENCEVILLE  FAIR      64  56  75 S16       30.00R
FLORA*         MOCLDY    64  57  78 S15       29.98R
FAIRFIELD*     FAIR      64  57  78 S7        29.99R
HARRISBURG*    FAIR      67  60  76 S18G26    30.00R
ROBINSON*      FAIR      64  56  77 S15       29.99R
CARMI*         FAIR      64  58  80 S13       30.00S
$$

ABBREVIATIONS USED IN REMARKS
   TC - TEMPERATURE IN CELSIUS
  WCI - WIND CHILL INDEX
   HX - HEAT INDEX
  VSB - VISIBILITY
$$





USA.gov is the U.S. government's official web portal to all federal, state and local government web resources and services.